RYR76SQ EGSS-EDDK

Flight info

Callsign RYR76SQ
Flight time 0h 54m
Altitude 33000
Route CLN M84 KONAN UL607 SPI T857 DENOV T861 ERUKI T856 DEPOK
Aircraft B738/M-SDE3FGILRWY/SB1

Departure

Time 2026-04-24 22:44
Airport London Stansted Airport (EGSS)

Arrival

Time 2026-04-24 23:38
Airport Cologne Bonn Airport (EDDK)
Time Latitude Longitude Altitude Speed Heading
2026-04-24 22:15 51.89293 0.25871 354 ft 0 kts 43°
2026-04-24 22:18 51.89265 0.25913 354 ft 0 kts 43°
2026-04-24 22:35 51.89263 0.25911 347 ft 3 kts 43°
2026-04-24 22:35 51.89243 0.25886 355 ft 4 kts 20°
2026-04-24 22:35 51.89219 0.25882 345 ft 4 kts 333°
2026-04-24 22:35 51.89209 0.25893 352 ft 1 kts 313°
2026-04-24 22:37 51.89219 0.25875 349 ft 5 kts 312°
2026-04-24 22:38 51.89255 0.25809 348 ft 11 kts 312°
2026-04-24 22:38 51.89317 0.25702 345 ft 15 kts 313°
2026-04-24 22:38 51.89385 0.25566 343 ft 15 kts 292°
2026-04-24 22:38 51.89413 0.25410 343 ft 15 kts 244°
2026-04-24 22:39 51.89340 0.25297 346 ft 14 kts 223°
2026-04-24 22:39 51.89271 0.25187 351 ft 14 kts 232°
2026-04-24 22:39 51.89216 0.25050 344 ft 16 kts 238°
2026-04-24 22:39 51.89132 0.24913 350 ft 19 kts 223°
2026-04-24 22:40 51.89031 0.24761 347 ft 21 kts 223°
2026-04-24 22:40 51.88922 0.24597 345 ft 22 kts 223°
2026-04-24 22:40 51.88808 0.24428 348 ft 22 kts 223°
2026-04-24 22:40 51.88698 0.24263 350 ft 21 kts 223°
2026-04-24 22:41 51.88593 0.24103 344 ft 21 kts 223°
2026-04-24 22:41 51.88489 0.23950 338 ft 20 kts 222°
2026-04-24 22:41 51.88389 0.23799 337 ft 19 kts 223°
2026-04-24 22:41 51.88325 0.23702 334 ft 19 kts 223°
2026-04-24 22:42 51.88243 0.23522 334 ft 12 kts 290°
2026-04-24 22:42 51.88285 0.23403 334 ft 12 kts 295°
2026-04-24 22:42 51.88302 0.23345 336 ft 12 kts 295°
2026-04-24 22:42 51.88319 0.23285 334 ft 13 kts 295°
2026-04-24 22:43 51.88347 0.23250 330 ft 3 kts 23°
2026-04-24 22:43 51.88389 0.23312 330 ft 25 kts 43°
2026-04-24 22:43 51.88703 0.23784 333 ft 97 kts 43°
2026-04-24 22:43 51.89349 0.24760 335 ft 155 kts 43°
2026-04-24 22:44 51.90161 0.25990 880 ft 162 kts 44°
2026-04-24 22:44 51.90979 0.27254 1608 ft 163 kts 50°
2026-04-24 22:44 51.91556 0.28837 2273 ft 163 kts 76°
2026-04-24 22:44 51.91665 0.30658 2952 ft 170 kts 95°
2026-04-24 22:45 51.91306 0.32648 3314 ft 196 kts 117°
2026-04-24 22:45 51.90908 0.33818 3513 ft 210 kts 117°
2026-04-24 22:45 51.90568 0.34847 3619 ft 220 kts 116°
2026-04-24 22:45 51.89881 0.37155 3984 ft 237 kts 114°
2026-04-24 22:46 51.89161 0.39736 4272 ft 260 kts 113°
2026-04-24 22:46 51.88674 0.41508 4750 ft 261 kts 113°
2026-04-24 22:46 51.87915 0.44230 5472 ft 267 kts 114°
2026-04-24 22:46 51.87130 0.46952 6300 ft 270 kts 115°
2026-04-24 22:47 51.86291 0.49687 7102 ft 273 kts 116°
2026-04-24 22:47 51.85478 0.52476 7839 ft 278 kts 113°
2026-04-24 22:47 51.84686 0.55377 8526 ft 285 kts 114°
2026-04-24 22:47 51.83833 0.58293 9246 ft 289 kts 115°
2026-04-24 22:48 51.83051 0.61279 10069 ft 290 kts 105°
2026-04-24 22:48 51.82815 0.64539 10624 ft 300 kts 87°
2026-04-24 22:48 51.82990 0.68033 10809 ft 323 kts 84°
2026-04-24 22:48 51.83196 0.71734 11254 ft 336 kts 84°
2026-04-24 22:49 51.83385 0.75523 11970 ft 339 kts 85°
2026-04-24 22:49 51.83546 0.79339 12715 ft 342 kts 85°
2026-04-24 22:49 51.83697 0.83223 13362 ft 349 kts 86°
2026-04-24 22:49 51.83843 0.87154 14099 ft 352 kts 86°
2026-04-24 22:50 51.83922 0.91129 14839 ft 356 kts 94°
2026-04-24 22:50 51.83290 0.94989 15566 ft 359 kts 117°
2026-04-24 22:50 51.81811 0.98224 16324 ft 360 kts 137°
2026-04-24 22:50 51.79892 1.00843 17023 ft 363 kts 142°
2026-04-24 22:51 51.77910 1.03408 17686 ft 367 kts 142°
2026-04-24 22:51 51.75926 1.06024 18363 ft 370 kts 141°
2026-04-24 22:51 51.73932 1.08698 19000 ft 374 kts 141°
2026-04-24 22:51 51.71954 1.11473 19560 ft 381 kts 139°
2026-04-24 22:52 51.70041 1.14381 20121 ft 385 kts 138°
2026-04-24 22:52 51.68100 1.17399 20691 ft 390 kts 138°
2026-04-24 22:52 51.66136 1.20447 21266 ft 394 kts 138°
2026-04-24 22:52 51.64143 1.23512 21813 ft 398 kts 139°
2026-04-24 22:53 51.62123 1.26590 22330 ft 402 kts 139°
2026-04-24 22:53 51.60072 1.29702 22822 ft 407 kts 139°
2026-04-24 22:53 51.58001 1.32840 23332 ft 410 kts 139°
2026-04-24 22:53 51.55917 1.35996 23818 ft 414 kts 140°
2026-04-24 22:54 51.53805 1.39191 24279 ft 418 kts 140°
2026-04-24 22:54 51.51678 1.42407 24735 ft 422 kts 140°
2026-04-24 22:54 51.49533 1.45645 25198 ft 425 kts 140°
2026-04-24 22:54 51.47366 1.48909 25623 ft 429 kts 140°
2026-04-24 22:55 51.45182 1.52190 26043 ft 432 kts 140°
2026-04-24 22:55 51.42982 1.55492 26490 ft 435 kts 140°
2026-04-24 22:55 51.40769 1.58812 26904 ft 438 kts 140°
2026-04-24 22:55 51.38538 1.62154 27286 ft 441 kts 140°
2026-04-24 22:56 51.36291 1.65518 27664 ft 444 kts 140°
2026-04-24 22:56 51.34023 1.68907 28030 ft 447 kts 140°
2026-04-24 22:56 51.31744 1.72310 28418 ft 449 kts 140°
2026-04-24 22:56 51.29450 1.75730 28772 ft 452 kts 140°
2026-04-24 22:57 51.27147 1.79156 29123 ft 454 kts 140°
2026-04-24 22:57 51.24837 1.82590 29642 ft 452 kts 140°
2026-04-24 22:57 51.22537 1.86008 30115 ft 451 kts 140°
2026-04-24 22:57 51.20240 1.89415 30512 ft 451 kts 140°
2026-04-24 22:58 51.17941 1.92818 30944 ft 450 kts 140°
2026-04-24 22:58 51.15689 1.96260 31406 ft 450 kts 134°
2026-04-24 22:58 51.13904 2.00376 31822 ft 453 kts 118°
2026-04-24 22:58 51.12797 2.05066 32255 ft 454 kts 103°
2026-04-24 22:59 51.12364 2.10046 32569 ft 456 kts 95°
2026-04-24 22:59 51.12132 2.15092 32821 ft 457 kts 94°
2026-04-24 22:59 51.11696 2.25045 33247 ft 453 kts 95°
2026-04-24 23:00 51.11448 2.30070 33228 ft 455 kts 95°
2026-04-24 23:00 51.10905 2.40058 33235 ft 452 kts 95°
2026-04-24 23:01 51.10341 2.50006 33245 ft 451 kts 95°
2026-04-24 23:01 51.09775 2.59942 33245 ft 451 kts 96°
2026-04-24 23:02 51.08802 2.69755 33244 ft 449 kts 107°
2026-04-24 23:02 51.07031 2.79273 33235 ft 449 kts 108°
2026-04-24 23:03 51.05221 2.88756 33237 ft 449 kts 108°
2026-04-24 23:03 51.03453 2.98277 33239 ft 449 kts 108°
2026-04-24 23:04 51.01703 3.07796 33241 ft 449 kts 108°
2026-04-24 23:04 50.99951 3.17301 33235 ft 448 kts 108°
2026-04-24 23:05 50.98192 3.26797 33228 ft 448 kts 108°
2026-04-24 23:05 50.96426 3.36270 33228 ft 448 kts 108°
2026-04-24 23:06 50.94654 3.45733 33232 ft 447 kts 108°
2026-04-24 23:06 50.92877 3.55172 33229 ft 447 kts 108°
2026-04-24 23:07 50.91094 3.64588 33229 ft 446 kts 108°
2026-04-24 23:07 50.89302 3.73912 33234 ft 445 kts 109°
2026-04-24 23:08 50.87489 3.83273 33232 ft 444 kts 109°
2026-04-24 23:08 50.85672 3.92616 33232 ft 443 kts 109°
2026-04-24 23:09 50.83858 4.01910 33233 ft 443 kts 109°
2026-04-24 23:09 50.82064 4.11075 32955 ft 430 kts 109°
2026-04-24 23:09 50.81186 4.15539 32691 ft 422 kts 109°
2026-04-24 23:10 50.80314 4.19960 32317 ft 420 kts 109°
2026-04-24 23:10 50.79447 4.24348 31965 ft 417 kts 109°
2026-04-24 23:10 50.78583 4.28705 31608 ft 414 kts 109°
2026-04-24 23:10 50.77724 4.33029 31253 ft 411 kts 110°
2026-04-24 23:11 50.76875 4.37298 30900 ft 408 kts 110°
2026-04-24 23:11 50.76023 4.41569 30544 ft 406 kts 110°
2026-04-24 23:11 50.75175 4.45811 30188 ft 404 kts 110°
2026-04-24 23:11 50.74333 4.50021 29831 ft 401 kts 110°
2026-04-24 23:12 50.73493 4.54213 29467 ft 399 kts 110°
2026-04-24 23:12 50.72655 4.58375 29110 ft 398 kts 110°
2026-04-24 23:12 50.71825 4.62531 28748 ft 396 kts 110°
2026-04-24 23:12 50.71021 4.66673 28398 ft 394 kts 109°
2026-04-24 23:13 50.70227 4.70793 28043 ft 392 kts 109°
2026-04-24 23:13 50.69435 4.74903 27688 ft 390 kts 109°
2026-04-24 23:13 50.68644 4.78990 27328 ft 389 kts 109°
2026-04-24 23:13 50.67854 4.83052 26971 ft 387 kts 109°
2026-04-24 23:14 50.67064 4.87102 26617 ft 386 kts 110°
2026-04-24 23:14 50.66274 4.91134 26262 ft 384 kts 109°
2026-04-24 23:14 50.65472 4.95146 25913 ft 383 kts 110°
2026-04-24 23:14 50.64656 4.99130 25557 ft 381 kts 110°
2026-04-24 23:15 50.63837 5.03089 25206 ft 380 kts 110°
2026-04-24 23:15 50.63020 5.07035 24863 ft 378 kts 110°
2026-04-24 23:15 50.62206 5.10969 24512 ft 377 kts 110°
2026-04-24 23:15 50.61395 5.14890 24159 ft 376 kts 110°
2026-04-24 23:16 50.60587 5.18793 23814 ft 375 kts 110°
2026-04-24 23:16 50.59781 5.22683 23464 ft 373 kts 110°
2026-04-24 23:16 50.58975 5.26564 23117 ft 372 kts 110°
2026-04-24 23:16 50.58172 5.30423 22774 ft 371 kts 110°
2026-04-24 23:17 50.57369 5.34276 22426 ft 370 kts 110°
2026-04-24 23:17 50.56569 5.38104 22078 ft 369 kts 110°
2026-04-24 23:17 50.55780 5.41879 21740 ft 367 kts 110°
2026-04-24 23:17 50.54982 5.45689 21393 ft 367 kts 110°
2026-04-24 23:18 50.54186 5.49484 21048 ft 365 kts 110°
2026-04-24 23:18 50.53391 5.53266 20704 ft 364 kts 110°
2026-04-24 23:18 50.52596 5.57038 20353 ft 362 kts 110°
2026-04-24 23:18 50.51994 5.60857 19988 ft 362 kts 96°
2026-04-24 23:19 50.52046 5.64785 19664 ft 359 kts 81°
2026-04-24 23:19 50.52676 5.68551 19335 ft 356 kts 71°
2026-04-24 23:19 50.53464 5.72227 18998 ft 353 kts 70°
2026-04-24 23:19 50.54261 5.75868 18653 ft 351 kts 70°
2026-04-24 23:20 50.55049 5.79483 18311 ft 349 kts 71°
2026-04-24 23:20 50.55822 5.83081 17981 ft 346 kts 71°
2026-04-24 23:20 50.56583 5.86664 17640 ft 344 kts 71°
2026-04-24 23:20 50.57332 5.90217 17308 ft 341 kts 71°
2026-04-24 23:21 50.58074 5.93752 16964 ft 339 kts 71°
2026-04-24 23:21 50.58807 5.97268 16644 ft 337 kts 71°
2026-04-24 23:21 50.59534 6.00755 16311 ft 335 kts 71°
2026-04-24 23:21 50.60256 6.04231 15985 ft 333 kts 71°
2026-04-24 23:22 50.60973 6.07687 15653 ft 331 kts 71°
2026-04-24 23:22 50.61684 6.11112 15331 ft 329 kts 71°
2026-04-24 23:22 50.62390 6.14528 15004 ft 327 kts 71°
2026-04-24 23:22 50.63087 6.17904 14682 ft 325 kts 71°
2026-04-24 23:23 50.63677 6.21319 14442 ft 320 kts 77°
2026-04-24 23:23 50.64100 6.24709 14291 ft 312 kts 79°
2026-04-24 23:23 50.64489 6.28059 13982 ft 311 kts 79°
2026-04-24 23:23 50.64873 6.31403 13647 ft 310 kts 79°
2026-04-24 23:24 50.65256 6.34727 13349 ft 307 kts 78°
2026-04-24 23:24 50.65640 6.38029 13031 ft 306 kts 78°
2026-04-24 23:24 50.66024 6.41306 12744 ft 303 kts 78°
2026-04-24 23:24 50.66407 6.44566 12439 ft 302 kts 78°
2026-04-24 23:25 50.66789 6.47808 12148 ft 299 kts 78°
2026-04-24 23:25 50.67167 6.51022 11861 ft 297 kts 78°
2026-04-24 23:25 50.67542 6.54217 11542 ft 294 kts 78°
2026-04-24 23:25 50.67911 6.57373 11103 ft 292 kts 78°
2026-04-24 23:26 50.68088 6.60550 10709 ft 293 kts 93°
2026-04-24 23:26 50.67844 6.63714 10526 ft 288 kts 97°
2026-04-24 23:26 50.67542 6.66808 10272 ft 285 kts 97°
2026-04-24 23:26 50.67144 6.69862 9968 ft 284 kts 102°
2026-04-24 23:27 50.66673 6.72876 9680 ft 283 kts 103°
2026-04-24 23:27 50.66191 6.75872 9390 ft 281 kts 103°
2026-04-24 23:27 50.65706 6.78848 9103 ft 280 kts 103°
2026-04-24 23:27 50.65219 6.81807 8822 ft 278 kts 103°
2026-04-24 23:28 50.64732 6.84749 8537 ft 277 kts 103°
2026-04-24 23:28 50.64248 6.87671 8249 ft 275 kts 103°
2026-04-24 23:28 50.63759 6.90572 8011 ft 273 kts 103°
2026-04-24 23:28 50.63273 6.93409 7730 ft 272 kts 103°
2026-04-24 23:29 50.62783 6.96271 7451 ft 270 kts 103°
2026-04-24 23:29 50.62329 6.99114 7153 ft 269 kts 99°
2026-04-24 23:29 50.61998 7.01961 7068 ft 259 kts 97°
2026-04-24 23:29 50.61693 7.04705 6985 ft 249 kts 97°
2026-04-24 23:30 50.61404 7.07348 6922 ft 240 kts 97°
2026-04-24 23:30 50.61123 7.09894 6805 ft 233 kts 97°
2026-04-24 23:30 50.60846 7.12399 6562 ft 232 kts 97°
2026-04-24 23:30 50.60569 7.14892 6312 ft 231 kts 97°
2026-04-24 23:31 50.60295 7.17379 6076 ft 230 kts 97°
2026-04-24 23:31 50.60275 7.19849 5774 ft 225 kts 71°
2026-04-24 23:31 50.61072 7.21886 5521 ft 218 kts 39°
2026-04-24 23:31 50.62270 7.23326 5278 ft 217 kts 34°
2026-04-24 23:32 50.63485 7.24666 5112 ft 210 kts 33°
2026-04-24 23:32 50.64666 7.25963 4871 ft 205 kts 33°
2026-04-24 23:32 50.65815 7.27234 4646 ft 200 kts 33°
2026-04-24 23:32 50.67024 7.28235 4421 ft 193 kts 22°
2026-04-24 23:33 50.68229 7.29095 4209 ft 188 kts 23°
2026-04-24 23:33 50.69013 7.29665 4080 ft 186 kts 23°
2026-04-24 23:33 50.70578 7.30811 3811 ft 185 kts 23°
2026-04-24 23:33 50.71738 7.31673 3605 ft 184 kts 23°
2026-04-24 23:34 50.72910 7.32519 3425 ft 185 kts 17°
2026-04-24 23:34 50.74144 7.32560 3210 ft 177 kts 338°
2026-04-24 23:34 50.75155 7.31547 3044 ft 171 kts 322°
2026-04-24 23:34 50.76034 7.30308 2813 ft 168 kts 318°
2026-04-24 23:35 50.76874 7.29092 2586 ft 165 kts 316°
2026-04-24 23:35 50.77722 7.27860 2371 ft 167 kts 315°
2026-04-24 23:35 50.78306 7.27012 2232 ft 171 kts 315°
2026-04-24 23:35 50.79490 7.25292 1934 ft 177 kts 316°
2026-04-24 23:36 50.80104 7.24404 1773 ft 177 kts 316°
2026-04-24 23:36 50.80999 7.23109 1536 ft 170 kts 317°
2026-04-24 23:36 50.81840 7.21897 1360 ft 155 kts 319°
2026-04-24 23:36 50.82618 7.20774 1120 ft 148 kts 317°
2026-04-24 23:37 50.83366 7.19668 950 ft 147 kts 318°
2026-04-24 23:37 50.84131 7.18588 768 ft 148 kts 317°
2026-04-24 23:37 50.85634 7.16402 332 ft 146 kts 317°
2026-04-24 23:38 50.86313 7.15421 272 ft 115 kts 317°
2026-04-24 23:38 50.86790 7.14729 256 ft 69 kts 317°
2026-04-24 23:38 50.87120 7.14251 258 ft 50 kts 317°
2026-04-24 23:38 50.87280 7.13948 252 ft 34 kts 292°
2026-04-24 23:39 50.87325 7.13670 245 ft 24 kts 281°
2026-04-24 23:39 50.87381 7.13416 237 ft 25 kts 317°
2026-04-24 23:39 50.87504 7.13236 233 ft 23 kts 317°
2026-04-24 23:39 50.87621 7.13067 230 ft 22 kts 317°
2026-04-24 23:40 50.87734 7.12903 231 ft 22 kts 317°
2026-04-24 23:40 50.87787 7.12765 229 ft 9 kts 261°
2026-04-24 23:40 50.87796 7.12666 229 ft 9 kts 301°
2026-04-24 23:40 50.87847 7.12611 231 ft 9 kts 348°
2026-04-24 23:41 50.87913 7.12608 229 ft 11 kts 344°
2026-04-24 23:41 50.87979 7.12527 229 ft 12 kts 317°
2026-04-24 23:41 50.88004 7.12490 229 ft 0 kts 317°